Simultaneous Nadir Overpasses (SNOs) Predictions

Prediction of SNOs between GOES-14 and AQUA Satellite Orbit:

Table of predicted SNOs for the next 14.0 days since TLE Epoch: 1/27/2024
Index Date Time (GOES-14) GOES-14 Lat,Lon AQUA Lat,Lon Distance(km) Time Diff (sec)
1 01/27/2024 08:56:52 -0.03,-108.51 -0.90,-104.42 465.72 80
2 01/27/2024 21:17:24 0.02,-108.51 -0.18,-109.39 99.86 80
3 01/29/2024 21:04:36 0.03,-108.51 0.67,-105.62 329.52 80
4 01/30/2024 09:25:00 -0.02,-108.50 0.40,-110.55 232.60 80
5 02/01/2024 09:06:50 -0.03,-108.50 -0.39,-106.76 197.16 80
6 02/01/2024 21:27:23 0.02,-108.50 -0.66,-111.74 368.46 80
7 02/03/2024 21:14:32 0.02,-108.48 0.14,-107.94 61.50 80
8 02/05/2024 20:59:00 0.01,-108.47 0.93,-104.15 491.41 80
9 02/06/2024 09:19:24 -0.01,-108.46 0.10,-109.09 70.50 80
10 02/08/2024 09:01:11 0.00,-108.44 -0.69,-105.28 359.37 80
11 02/08/2024 21:21:43 -0.00,-108.44 -0.37,-110.26 206.45 80
